Home   Weather   Boulder   Past weeks
Flag for USA

Past Weather in Boulder, Colorado, USA — Yesterday and Last 2 Weeks

Now
57 °F

Partly cloudy.


Feels Like: 55 °F
Forecast: 69 / 48 °F
Wind: 12 mph from Northwest

Location: Broomfield / Jeffco

Current Time: May 26, 2019 at 9:58:05 pm

Latest Report: May 26, 2019 at 9:10 pm


Visibility: 15 mi

Pressure: 29.86 "Hg (24.62 "Hg at 1623m altitude)

Humidity: 88%

Dew Point: 54 °F

Location of BoulderLocation

Past Weather in Boulder — Graph

°F

Boulder Temperature Yesterday

Maximum temperature yesterday: 73 °F (at 3:50 pm)
Minimum temperature yesterday: 43 °F (at 4:34 am)
Average temperature yesterday: 57 °F

High & Low Weather Summary for the Past Weeks

 TemperatureHumidityPressure
High82 °F (May 15, 4:55 pm)100% (May 17, 10:36 pm)30.14 "Hg (May 17, 10:36 pm)
Low32 °F (May 20, 9:45 pm)14% (May 14, 12:47 pm)29.55 "Hg (May 17, 2:35 pm)
Average51 °F62%29.91 "Hg
* Reported May 11 7:52 pm — May 26 7:47 pm, Boulder. Weather by CustomWeather, © 2019

Note: Actual official high and low records may vary slightly from our data, if they occured in-between our weather recording intervals... More about our weather records

Advertising

Boulder Weather History for the Previous 24 Hours

Scroll right to see more
 ConditionsComfort  
Time TempWeatherWind HumidityBarometerVisibility
7:47 pm
Sun, May 26
61 °FPartly sunny.10 mph77%29.83 "Hg15 mi
6:50 pm64 °FPartly sunny.17 mph68%29.79 "Hg15 mi
5:50 pm64 °FThunderstorms. Partly sunny.13 mph60%29.75 "Hg15 mi
4:55 pm66 °FThunderstorms. Partly sunny.13 mph56%29.82 "Hg10 mi
4:10 pm66 °FScattered showers. Broken clouds.10 mph56%29.85 "Hg10 mi
3:47 pm66 °FScattered showers. Broken clouds.12 mph56%29.88 "Hg10 mi
2:58 pm68 °FBroken clouds.9 mph56%29.91 "Hg10 mi
1:48 pm68 °FBroken clouds.8 mph53%29.94 "Hg10 mi
12:47 pm68 °FScattered clouds.No wind53%29.97 "Hg10 mi
11:48 am64 °FScattered clouds.6 mph60%29.99 "Hg10 mi
10:55 am63 °FScattered clouds.6 mph68%30.01 "Hg10 mi
9:55 am63 °FPartly sunny.6 mph68%30.03 "Hg10 mi
8:55 am57 °FPartly sunny.9 mph82%30.04 "Hg10 mi
7:46 am55 °FPartly sunny.8 mph82%30.04 "Hg10 mi
5:58 am54 °FLow clouds.8 mph88%30.01 "Hg7 mi
5:52 am54 °FLow clouds.12 mph88%30.01 "Hg7 mi
5:35 am52 °FLow clouds.9 mph94%30.01 "Hg10 mi
5:11 am52 °FLow clouds.10 mph94%30.00 "Hg10 mi
4:54 am52 °FPassing clouds.No wind82%30.01 "Hg10 mi
4:36 am52 °FPassing clouds.7 mph82%30.00 "Hg10 mi
4:12 am52 °FClear.13 mph72%29.99 "Hg10 mi
3:56 am50 °FClear.9 mph71%29.99 "Hg10 mi
3:34 am54 °FClear.3 mph58%29.99 "Hg10 mi
3:11 am52 °FClear.6 mph58%29.98 "Hg10 mi
2:52 am50 °FClear.No wind58%29.98 "Hg10 mi
2:35 am50 °FClear.No wind58%29.98 "Hg10 mi
2:12 am52 °FClear.No wind58%29.98 "Hg10 mi
1:12 am55 °FClear.10 mph59%29.97 "Hg10 mi
12:53 am54 °FClear.13 mph63%29.98 "Hg10 mi
12:36 am55 °FClear.13 mph55%29.99 "Hg10 mi
12:12 am57 °FClear.10 mph48%29.99 "Hg10 mi
11:54 pm
Sat, May 25
57 °FClear.10 mph48%29.99 "Hg10 mi
11:36 pm59 °FClear.6 mph45%29.99 "Hg10 mi
11:12 pm59 °FClear.6 mph51%29.99 "Hg10 mi
10:53 pm59 °FClear.8 mph48%30.00 "Hg10 mi
10:35 pm61 °FClear.9 mph42%30.00 "Hg10 mi
10:11 pm63 °FClear.10 mph39%29.99 "Hg10 mi
9:47 pm64 °FPassing clouds.10 mph37%29.98 "Hg10 mi
Weather by CustomWeather, © 2019

See weather overview